Flag for Norway Weather past 2 weeks in Bryne, Norway

Now
63 °F

Mild.


Feels Like: 63 °F
Forecast: 58 / 64 °F
Wind: 6 mph from West

Location: Obrestad

Current Time: Jul 30, 2014 at 11:05:38 AM

Latest Report: Jul 30, 2014 at 10:00 AM


Visibility: N/A

Pressure: 29.75 "Hg

Humidity: 73%

Dew point: 54 °F

Location of BryneLocation

Historic Weather in Bryne — Graph

°F

Bryne temperature yesterday

Maximum temperature yesterday: 67 °F (at 8:00 AM)
Minimum temperature yesterday: 62 °F (at 6:00 AM)
Average temperature yesterday: 65 °F

Past Weeks' High & Low Weather Summary

 TemperatureHumidityPressure
High80 °F (Jul 26, 1:00 PM)96% (Jul 15, 11:00 AM)30.31 "Hg (Jul 15, 11:00 AM)
Low56 °F (Jul 19, 4:00 AM)39% (Jul 20, 1:00 PM)29.74 "Hg (Jul 30, 7:00 AM)
Average66 °F76%30.06 "Hg
* Reported Jul 15 9:00 AM — Jul 30 9:00 AM, Bryne, Weather by CustomWeather, © 2014

Note: Actual official high and low records may vary slightly from our data, if they occured in-between our weather recording intervals... More about our weather records

Advertising

Bryne weather history for previous 24 hours

 ConditionsComfort  
Time TempWeatherWind HumidityBarometerVisibility
9:00 AM
Jul 30
64 °FMild.5 mph71%29.75 "HgN/A
8:00 AM63 °FMild.6 mph72%29.74 "HgN/A
7:00 AM62 °FMild.8 mph70%29.74 "HgN/A
6:00 AM62 °FMild.8 mph75%29.75 "HgN/A
5:00 AM62 °FMild.9 mph77%29.75 "HgN/A
4:00 AM63 °FMild.9 mph79%29.75 "HgN/A
3:00 AM62 °FCool.7 mph88%29.76 "HgN/A
2:00 AM62 °FCool.3 mph94%29.76 "HgN/A
1:00 AM61 °FCool.3 mph93%29.78 "HgN/A
12:00 AM62 °FCool.3 mph91%29.79 "HgN/A
11:00 PM
Jul 29
65 °FMild.2 mph78%29.80 "HgN/A
10:00 PM65 °FMild.1 mph76%29.80 "HgN/A
9:00 PM65 °FMild.1 mph75%29.81 "HgN/A
8:00 PM65 °FMild.5 mph73%29.83 "HgN/A
7:00 PM65 °FMild.7 mph72%29.84 "HgN/A
6:00 PM65 °FMild.6 mph74%29.85 "HgN/A
5:00 PM66 °FMild.7 mph71%29.86 "HgN/A
4:00 PM65 °FMild.6 mph73%29.88 "HgN/A
3:00 PM67 °FMild.7 mph70%29.88 "HgN/A
2:00 PM66 °FMild.7 mph70%29.88 "HgN/A
1:00 PM66 °FMild.7 mph73%29.89 "HgN/A
12:00 PM65 °FMild.9 mph74%29.90 "HgN/A
11:00 AM65 °FMild.9 mph79%29.90 "HgN/A
Weather by CustomWeather, © 2014

See weather overviewHow to use our weather pages